Regional Weather Roundup
Issued by NWS

Home | Current Version | Previous Version | Graphics & Text | Print | Product List | Glossary On
Versions: 1 2 3 4 5 6 7 8 9 10 11 12 13 14 15 16 17 18 19 20 21 22 23 24 25 26 27 28 29 30 31 32 33 34 35 36 37 38 39 40 41 42 43 44 45 46 47 48 49 50
000
ASUS43 KDMX 271706
RWRIA

WEATHER ROUNDUP FOR IOWA
NATIONAL WEATHER SERVICE DES MOINES IA
1200 PM CDT THU JUL 27 2017

NOTE: "FAIR" INDICATES FEW OR NO CLOUDS BELOW 12,000 FEET WITH NO
SIGNIFICANT WEATHER AND/OR OBSTRUCTIONS TO VISIBILITY.

* - THESE STATIONS ARE NOT NWS STATIONS...THUS NOT UNDER NWS
QUALITY CONTROL.  THEY ALSO DO NOT REPORT WEATHER SUCH
AS PRECIPITATION OR FOG.

IAZ001>003-012>014-020>022-031>034-043>046-271800-
   NORTHWEST IOWA

CITY           SKY/WX    TMP DP  RH WIND       PRES   REMARKS
CARROLL *      MOSUNNY   79  63  57 NE12G20   30.07S HX  80
CHEROKEE *     SUNNY     78  62  56 NE5       30.10S HX  80
DENISON *      MOSUNNY   77  64  65 E10       30.09F
ORANGE CITY *  SUNNY     81  63  54 E7        30.11F HX  82
SHELDON *      MOSUNNY   79  63  57 N8        30.11S HX  80
SIOUX CITY     MOSUNNY   83  63  50 N10       30.09S HX  84
SPENCER        MOSUNNY   83  61  47 NE13      30.10S HX  83
STORM LAKE *     N/A     77  64  65 E10       30.10S
$$

IAZ055>058-069>071-079>083-090>094-271800-
   SOUTHWEST IOWA

CITY           SKY/WX    TMP DP  RH WIND       PRES   REMARKS
ATLANTIC *     MOSUNNY   79  66  65 NE10      30.05S HX  81
AUDUBON *      SUNNY     79  66  65 NE9       30.07F HX  81
CLARINDA *     MOSUNNY   81  72  74 N9        30.05S HX  84
COUNCIL BLFS * SUNNY     79  64  61 NE12      30.06F HX  81
CRESTON *      PTSUNNY   79  70  73 NE8       30.04F HX  81
HARLAN  *      SUNNY     79  64  61 NE9G16    30.10S HX  81
LAMONI         PTSUNNY   82  71  69 N8        30.01F HX  86
RED OAK *      SUNNY     81  70  69 NE9       30.04F HX  84
SHENANDOAH *   MOSUNNY   81  70  69 NE8       30.04F HX  84
$$

IAZ047>049-059>061-072>074-084-271800-
   CENTRAL IOWA

CITY           SKY/WX    TMP DP  RH WIND       PRES   REMARKS
AMES           MOSUNNY   82  67  60 NE9       30.03S HX  84
ANKENY *       SUNNY     81  66  61 NE10      30.03S HX  83
BOONE *        SUNNY     81  64  57 NE10      30.04S HX  82
CHARITON *     MOSUNNY   81  70  69 N9        30.00S HX  84
DES MOINES     PTSUNNY   83  67  58 NE12      30.01S HX  85
GRINNELL*      MOSUNNY   80  68  66 NE9       30.02F HX  82
KNOXVILLE *    MOSUNNY   81  70  69 NE8       29.99S HX  84
MARSHALLTOWN   SUNNY     82  66  58 NE9       30.02S HX  84
NEWTON *       MOSUNNY   81  66  61 NE13      30.01F HX  83
PELLA *        PTSUNNY   82  67  60 NE3       30.01S HX  84
PERRY *          N/A     80  67  65 N7        30.05S HX  82
$$

IAZ004>006-015-016-023>025-035-036-271800-
   NORTH CENTRAL IOWA

CITY           SKY/WX    TMP DP  RH WIND       PRES   REMARKS
ALGONA *       MOSUNNY   81  64  57 N9        30.09R HX  82
ESTHERVILLE      N/A     79  64  60 N8        30.10R HX  81
FORT DODGE *   PTSUNNY   79  63  57 NE9       30.08S HX  80
MASON CITY     SUNNY     80  64  58 NE7       30.08S HX  82
FOREST CITY *    N/A     81  63  54 NE10      30.08S HX  82
WEBSTER CITY * MOSUNNY   81  63  54 NE13G20   30.04S HX  82
IOWA FALLS *     N/A     81  62  53 NE10      30.06S HX  82
$$

IAZ007>011-017>019-026>030-037>042-050>054-066-271800-
   NORTHEAST IOWA

CITY           SKY/WX    TMP DP  RH WIND       PRES   REMARKS
CEDAR RAPIDS   MOSUNNY   81  72  74 NE12      29.99S HX  84
CHARLES CITY * SUNNY     79  59  50 NE12      30.06S HX  80
DECORAH *      SUNNY     79  61  53 VRB6      30.04F HX  80
DUBUQUE        MOSUNNY   79  67  66 NE12      30.01S HX  81
MONTICELLO *   MOSUNNY   81  68  65 E9        29.99F HX  83
OELWEIN *      SUNNY     79  64  61 NE8       30.04S HX  81
WATERLOO       SUNNY     81  63  54 NE9       30.02S HX  82
$$

IAZ064-065-067-068-078-271800-
   EAST CENTRAL IOWA

CITY           SKY/WX    TMP DP  RH WIND       PRES   REMARKS
DAVENPORT      PTSUNNY   80  71  74 NE12      29.99F HX  84
IOWA CITY      MOSUNNY   84  70  62 NE10      29.99F HX  88
MT. PLEASANT * CLOUDY    77  72  83 N9        29.98S
MUSCATINE *    PTSUNNY   81  70  69 NE9       29.98S HX  84
QUAD CITIES    CLOUDY    79  70  74 N6        29.96F HX  82
$$

IAZ062-063-075>077-085>089-095>099-271800-
   SOUTHEAST IOWA

CITY           SKY/WX    TMP DP  RH WIND       PRES   REMARKS
BURLINGTON     CLOUDY    77  72  84 NE12      29.97S
FAIRFIELD *    MOSUNNY   82  68  61 NE13      29.98S HX  85
FORT MADISON * CLOUDY    79  73  83 NE9       29.97S HX  82
KEOKUK *       CLOUDY    79  73  83 N8        29.95S HX  82
OSKALOOSA *      N/A     83  69  63 NE7       29.99F HX  86
CENTERVILLE *    N/A     81  72  74 NE5       30.01S HX  84
OTTUMWA        PTSUNNY   84  69  60 NE10      29.98F HX  88
WASHINGTON *   PTSUNNY   79  73  83 E7        29.99F HX  82
$$

ABBREVIATIONS USED IN REMARKS
   TC - TEMPERATURES IN CELSIUS
  WCI - WIND CHILL INDEX
   HX - HEAT INDEX
  VSB - VISIBILITY
$$




USA.gov is the U.S. government's official web portal to all federal, state and local government web resources and services.